Regional Weather Roundup
Issued by NWS

Home | Current Version | Previous Version | Graphics & Text | Print | Product List | Glossary On
Versions: 1 2 3 4 5 6 7 8 9 10 11 12 13 14 15 16 17 18 19 20 21 22 23 24 25 26 27 28 29 30 31 32 33 34 35 36 37 38 39 40 41 42 43 44 45 46 47 48 49 50
000
ASUS43 KMPX 240710
RWRMN
WEATHER ROUNDUP FOR MINNESOTA
NATIONAL WEATHER SERVICE TWIN CITIES/CHANHASSEN MN
200 AM CDT MON APR 24 2017


NOTE: "FAIR" INDICATES FEW OR NO CLOUDS BELOW 12,000 FEET WITH NO
SIGNIFICANT WEATHER AND/OR OBSTRUCTIONS TO VISIBILITY. N/A MEANS
CURRENT SKY AND/OR WEATHER CONDITIONS ARE NOT AVAILABLE.

MNZ060>063-068>070-240800-
   Twin Cities Metro

CITY           SKY/WX    TMP DP  RH WIND       PRES   REMARKS
TWIN CITIES    CLOUDY    50  39  66 NE3       29.85F
ST PAUL        CLOUDY    49  41  74 E3        29.86F
CRYSTAL        PTCLDY    45  37  73 CALM      29.85F
BLAINE         CLOUDY    45  39  81 E3        29.86F
LAKEVILLE      CLOUDY    55  34  44 S10       29.84F
EDEN PRAIRIE   CLOUDY    50  40  68 NE7       29.83F
SOUTH ST PAUL  CLOUDY    49  40  69 CALM      29.85F
LAKE ELMO      FAIR      45  39  81 E3        29.88F
$$
MNZ001>005-007-008-013>017-022>024-027-028-240800-
   Northwest Minnesota

CITY           SKY/WX    TMP DP  RH WIND       PRES   REMARKS
BEMIDJI        CLOUDY    33  29  84 E13G20    29.89F WCI  24
HALLOCK        CLOUDY    36  21  55 E10       29.96F
ROSEAU         CLOUDY    36  19  51 E13       29.98F
WARROAD        CLOUDY    36  19  51 E18       29.99F
THIEF RVR FALL MIX PCPN  32  30  92 E21       29.89F WCI  20
CROOKSTON      CLOUDY    36  30  80 E13       29.89R
FOSSTON        CLOUDY    34  28  80 E17G26    29.86F WCI  23
DETROIT LAKES  CLOUDY    34  30  86 SE16G23   29.81F WCI  23
MOORHEAD       CLOUDY    39  30  70 E10G20    29.79F
PARK RAPIDS    CLOUDY    34  24  67 E13G24    29.84F WCI  25
MAHNOMEN       CLOUDY    35  31  87 E17G24    29.80F WCI  25
$$
MNZ006-009>011-018-025>026-240800-
   North Central Minnesota

CITY           SKY/WX    TMP DP  RH WIND       PRES   REMARKS
BAUDETTE       CLOUDY    33  26  75 E13       29.99F WCI  24
FLAG ISLAND    PTCLDY    34  16  47 E9        30.01F WCI  26
INTL FALLS     LGT SNOW  33  27  78 E14       30.01F WCI  23
WASKISH        MIX PCPN  32  30  93 E10       29.96F WCI  24
BIG FORK       CLOUDY    34  30  86 E8        29.96F WCI  27
LONGVILLE      MOCLDY    32  27  80 E10G18    29.89F WCI  24
GRAND RAPIDS   CLOUDY    31  25  78 E10G17    29.95F WCI  22
CRANE LAKE     LGT SNOW  30  28  93 CALM      30.05F
ORR            FLURRIES  30  27  86 MISG      29.97F
COOK           MIX PCPN  30  28  93 E7        29.99F WCI  23
WALKER         PTSUNNY   33  26  77 E13G20    29.88F WCI  23
$$
MNZ012-019>021-037-240800-
   Northeast Minnesota

CITY           SKY/WX    TMP DP  RH WIND       PRES   REMARKS
DULUTH         CLOUDY    33  24  69 E23G32    29.98F WCI  21
ELY            FLURRIES  28  27  93 E12       30.02F WCI  18
HIBBING        CLOUDY    30  25  81 E10G18    29.98F WCI  21
EVELETH        CLOUDY    32  25  73 E9        30.00F WCI  24
DULUTH HARBOR  CLOUDY    37  32  81 NE28G38   30.03F
TWO HARBORS    CLOUDY    36  27  69 NE17G24   30.01F
SILVER BAY     CLOUDY    30  28  93 NE12G18   30.05F WCI  21
GRAND MARAIS     N/A     30  27  88 NE12G18   30.14F WCI  20
G MARAIS ARPRT LGT SNOW  25  19  80 E9        30.07F WCI  15
$$
MNZ029>031-032-039>041-046>048-054>057-064-240800-
   West Central Minnesota

CITY           SKY/WX    TMP DP  RH WIND       PRES   REMARKS
FERGUS FALLS   CLOUDY    37  30  75 E18G29    29.75F
WHEATON        CLOUDY    39  34  81 E15       29.74F
MORRIS         CLOUDY    39  36  87 E23       29.74F
ALEXANDRIA     CLOUDY    35  31  85 E17       29.81F WCI  25
ELBOW LAKE     FAIR      37  34  86 SE20G32   29.75F
WADENA         CLOUDY    32  25  74 E13G21    29.83F WCI  22
GLENWOOD       CLOUDY    36  34  93 E18       29.81F
APPLETON       CLOUDY    45  37  76 E16       29.73F
BENSON         CLOUDY    43  34  70 SE15      29.78F
ORTONVILLE     CLOUDY    45  37  76 E14       29.71F
MADISON        CLOUDY    52  37  58 E12       29.72F
WILLMAR        FAIR      43  37  81 E12       29.80F
$$
MNZ033>034-036-042>043-049>051-058-059-240800-
   Central Minnesota

CITY           SKY/WX    TMP DP  RH WIND       PRES   REMARKS
ST CLOUD       PTCLDY    36  32  85 E8        29.85F
SAUK CENTRE    FAIR      35  32  89 E14       29.83F WCI  26
PAYNESVILLE    CLOUDY    39  34  82 E12       29.83F
AITKIN         CLOUDY    36  25  64 E10G17    29.89F
PINE RIVER     CLOUDY    32  25  74 E13       29.92F WCI  22
BRAINERD       CLOUDY    33  25  72 E10G16    29.89F WCI  25
STAPLES        PTCLDY    32  25  74 E7        29.86F WCI  26
LONG PRAIRIE   FAIR      32  30  93 NE13      29.85S WCI  22
LITTLE FALLS   PTCLDY    34  28  80 E5        29.87F WCI  30
LITCHFIELD     CLOUDY    43  37  81 E9        29.83F
BUFFALO        PTCLDY    41  35  79 NE8       29.85F
MAPLE LAKE     PTCLDY    40  37  86 E9        29.85F
HUTCHINSON     CLOUDY    45  39  82 NE7       29.83F
$$
MNZ037-044-045-052-053-240800-
   East Central Minnesota

CITY           SKY/WX    TMP DP  RH WIND       PRES   REMARKS
PRINCETON      CLOUDY    37  32  81 NE8       29.87F
MORA           CLOUDY    34  28  80 E7        29.92F WCI  28
CAMBRIDGE      CLOUDY    39  30  70 NE6       29.87F
RUSH CITY      PTCLDY    36  32  84 NE7       29.90F
MOOSE LAKE     CLOUDY    34  27  75 E8G18     29.93F WCI  27
HINCKLEY       FAIR      36  30  80 NE7       29.92F
CLOQUET        CLOUDY    34  25  69 E17G30    29.96F WCI  23
MCGREGOR       CLOUDY    34  28  80 E16       29.93F WCI  23
$$
MNZ071>073-080-081-089-090-097-098-240800-
   Southwest Minnesota

CITY           SKY/WX    TMP DP  RH WIND       PRES   REMARKS
MONTEVIDEO     CLOUDY    48  37  66 SE12      29.74F
GRANITE FALLS  CLOUDY    56  35  45 S14       29.76S
CANBY          MOCLDY    60  30  32 SW18G33   29.70F
MARSHALL       CLOUDY    58  32  37 S20       29.73F
REDWOOD FALLS  PTCLDY    54  33  45 S15       29.77F
OLIVIA         PTCLDY    54  34  47 SE7       29.77F
PIPESTONE      PTCLDY    52  28  40 S15       29.76F
WINDOM         CLOUDY    55  30  38 S14G20    29.80F
WORTHINGTON    PTCLDY    53  31  42 S16       29.81F
JACKSON        MOCLDY    52  32  46 S13       29.83F
TRACY          CLOUDY    58  32  37 S16       29.77S
SLAYTON        CLOUDY    54  31  41 S17G24    29.78F
$$
MNZ065>067-074>077-082>085-091>093-240800-
   South Central Minnesota

CITY           SKY/WX    TMP DP  RH WIND       PRES   REMARKS
MANKATO        CLOUDY    54  33  45 S9        29.85F
NEW ULM        CLOUDY    54  32  43 S14       29.81F
ST JAMES       CLOUDY    54  34  47 S15       29.83F
FAIRMONT       CLOUDY    50  35  56 S12       29.85F
GLENCOE        PTCLDY    46  42  86 CALM      29.82F
FARIBAULT      CLOUDY    54  36  50 S9        29.87F
OWATONNA       CLOUDY    54  32  43 S10       29.88S
WASECA         CLOUDY    55  34  44 S15       29.87F
ALBERT LEA     PTCLDY    52  32  46 S7        29.89F
$$
MNZ078>079-086>088-094>096-240800-
   Southeast Minnesota

CITY           SKY/WX    TMP DP  RH WIND       PRES   REMARKS
ROCHESTER      CLOUDY    50  36  58 S12       29.91F
RED WING       PTCLDY    59  30  33 S5        29.87F
STANTON        CLOUDY    55  34  46 S9        29.85F
DODGE CENTER   PTCLDY    54  34  47 S15       29.90S
WINONA         PTCLDY    54  36  50 CALM      29.92F
AUSTIN         CLOUDY    52  36  54 S8        29.90F
PRESTON        PTCLDY    50  32  50 S9        29.93F
$$
ABBREVIATIONS USED IN REMARKS
   TC - TEMPERATURES IN CELSIUS
  WCI - WIND CHILL INDEX
   HX - HEAT INDEX
  VSB - VISIBILITY
$$



USA.gov is the U.S. government's official web portal to all federal, state and local government web resources and services.